Location: Helsinki
(60.1699°N, 24.9384°E)
Time: 23:50:45
(UTC+02:00)

Altair - Pass Details

Date: 27 October 2020
Orbit: 1502 x 1682 km, 47.2° (Epoch: 25 November)

Event Time Altitude Azimuth Distance (km) Brightness Sun altitude
Rises 08:23:15 0° 248° (WSW) 4,697 9.7 4.7°
Reaches altitude 10° 08:26:31 10° 241° (WSW) 3,737 9.3 5.0°
Maximum altitude 08:34:58 38° 178° (S) 2,255 9.0 5.9°
Drops below altitude 10° 08:43:42 10° 115° (ESE) 3,866 11.5 6.7°
Sets 08:47:08 0° 108° (ESE) 4,875 11.5 7.0°
